Location: ???? ?????????
(31.1304°N, 31.7111°E)
Time: 10:44:44
(UTC+00:00)

OAO 3 Copernicus - Pass Details

Date: 29 October 2020
Orbit: 694 x 705 km, 35.0° (Epoch: 26 November)

Event Time Altitude Azimuth Distance (km) Brightness Sun altitude
Rises 17:05:25 0° 257° (WSW) 3,054 8.9 -25.9°
Reaches altitude 10° 17:07:49 10° 259° (W) 2,139 7.8 -26.4°
Enters shadow 17:12:23 70° 297° (WNW) 737 4.4 -27.4°
